Location: Charvieu
(45.7463°N, 5.1568°E)
Time: 00:46:05
(UTC+00:00)

Daily predictions for brighter satellites

Satellite Brightness Start Highest point End
(mag) Time Altitude Azimuth Time Altitude Azimuth Time Altitude Azimuth
USA 234 4.3 01:59:07 10° E 02:03:27 40° ENE 02:03:27 40° ENE
Cosmos 2322 Rocket 4.1 02:20:05 24° NNE 02:20:05 24° NNE 02:22:11 10° NNE
Cosmos 2360 Rocket 3.6 02:30:10 34° NE 02:30:10 34° NE 02:33:19 10° NNE
CENTAUR R/B 4.4 02:24:25 16° NNW 02:29:44 33° NNE 02:37:11 10° E
COSMOS 2455 3.9 02:31:45 42° E 02:31:45 42° E 02:36:22 10° NE
USA 238 DEB 4.4 02:37:11 38° N 02:39:46 54° NE 02:46:59 10° ESE
USA 238 4.4 02:37:16 37° N 02:39:52 54° NE 02:47:04 10° ESE
Cosmos 2278 Rocket 3.8 03:00:37 10° N 03:05:42 32° NE 03:10:45 10° ESE
NOSS 3-2 (A) 4.3 03:01:02 23° NNW 03:06:03 66° NE 03:14:20 10° SE
Cosmos 2333 Rocket 2.9 03:06:30 43° SE 03:07:33 48° ESE 03:13:01 10° NE
ADEOS 4.4 03:02:50 10° NNE 03:07:54 47° E 03:09:17 38° SE
USA 267 3.2 03:07:42 10° NE 03:14:11 68° NNW 03:14:41 66° WNW
ADEOS II 3.8 03:14:05 10° N 03:15:59 21° NNW 03:15:59 21° NNW
Cosmos 2333 4.0 03:22:16 87° S 03:22:21 89° ESE 03:28:01 10° NNE
ARIANE 5 R/B 4.4 03:23:23 10° N 03:24:45 17° NNW 03:24:45 17° NNW
NOSS 3-2 (C) 4.4 03:21:50 13° NW 03:28:36 64° NE 03:36:53 10° SE
SL-16 R/B 3.8 03:30:46 21° NNW 03:30:46 21° NNW 03:33:45 10° N
CZ-2C R/B 4.1 03:25:04 10° NNE 03:29:46 33° E 03:34:24 10° SSE
Cosmos 2322 3.6 03:31:45 67° WNW 03:31:45 67° WNW 03:37:25 10° NNE
BREEZE-M DEB (TANK) 4.0 03:37:12 25° SSE 03:37:12 25° SSE 03:38:30 10° SE
Cosmos 1709 Rocket 3.9 03:36:00 46° SSW 03:37:59 74° W 03:44:21 10° N
Cosmos 2219 Rocket 2.1 03:38:52 50° SSW 03:40:25 86° ESE 03:46:03 10° NNE
Cosmos 2237 Rocket 3.5 03:42:16 10° S 03:47:30 40° ESE 03:52:47 10° NE
USA 234 3.2 03:41:59 10° SE 03:48:26 60° SW 03:50:49 39° WNW
NOSS 2-2 (D) 3.2 03:49:47 74° NNE 03:49:47 74° NNE 03:53:37 10° NE
IDEFIX/ARIANE 42P 2.5 03:48:53 10° N 03:54:07 69° WNW 03:55:58 40° SW
Cosmos 292 Rocket 4.0 03:51:04 10° NNW 03:55:52 70° ENE 04:00:39 10° SSE
COSMOS 2428 2.6 03:56:23 40° SW 03:58:25 71° WNW 04:04:07 10° NNE
Cosmos 44 3.7 03:55:54 20° NNW 03:58:47 53° NE 04:03:00 10° SE
PAYLOAD A 4.1 03:54:48 10° NNE 03:59:38 73° ESE 04:04:35 10° S
Meteor 1-31 Rocket 3.9 03:56:35 10° NNE 04:00:15 43° E 04:03:52 10° S
Cosmos 1992 Rocket 4.2 04:01:04 44° WSW 04:01:04 44° WSW 04:05:28 10° S
Cosmos 2322 Rocket 3.9 04:01:54 16° NW 04:01:54 16° NW 04:05:04 10° N
H-2A R/B 2.3 03:58:46 10° NNE 04:02:54 83° WNW 04:04:58 30° SSW
Cosmos 1980 4.3 03:58:35 10° S 04:04:07 58° ESE 04:09:39 10° NNE
BREEZE-M DEB (TANK) 3.0 04:04:48 39° NE 04:04:48 39° NE 04:06:26 10° ENE
ATLAS 3B R/B 3.0 04:01:19 10° NW 04:08:00 67° NE 04:14:49 10° SE
Cosmos 1470 2.8 04:04:07 10° N 04:08:04 76° E 04:11:57 10° SSE
Cosmos 1842 3.5 04:11:45 46° WNW 04:11:45 46° WNW 04:15:15 10° N
Cosmos 1707 3.6 04:07:53 10° S 04:11:41 51° E 04:15:30 10° NNE
Cosmos 2360 Rocket 3.4 04:11:57 23° NW 04:12:14 24° NW 04:16:44 10° N
Cosmos 2251 Rocket 4.1 04:12:41 34° WNW 04:13:23 35° WNW 04:18:20 10° N
Cosmos 2074 Rocket 4.0 04:08:08 10° S 04:14:22 87° E 04:20:38 10° N
NOSS 0 Rocket 4.0 04:09:39 10° SSW 04:15:48 82° ESE 04:22:02 10° NNE
COSMOS 2455 3.5 04:14:56 31° W 04:16:41 37° NW 04:22:16 10° NNE
Okean O Rocket 4.4 04:13:37 10° NE 04:16:53 20° E 04:20:07 10° SE
PSLV R/B 4.1 04:15:35 10° N 04:19:27 35° WNW 04:19:29 35° WNW
Cosmos 2181 Rocket 4.2 04:14:55 10° NNW 04:20:56 45° W 04:26:50 10° SSW
CENTAUR R/B 3.2 04:13:30 10° NW 04:21:32 86° NE 04:30:16 10° SE
Cosmos 2228 4.1 04:18:04 10° N 04:22:13 47° ENE 04:26:18 10° SSE
Cosmos 1025 Rocket 3.1 04:20:29 28° SW 04:22:24 49° WNW 04:26:34 10° N
NOSS 2-2 (C) 3.8 04:25:19 35° WNW 04:26:07 40° NW 04:30:09 10° NNE
ATLAS 2AS CENTAUR R/B 3.0 04:19:16 12° SW 04:26:46 82° NW 04:34:52 10° NE
USA 238 DEB 4.2 04:24:45 13° NW 04:30:38 42° WSW 04:37:28 10° S
USA 238 4.2 04:24:48 13° NW 04:30:45 42° WSW 04:37:35 10° S
Cosmos 921 Rocket 3.2 04:28:38 10° NNW 04:32:44 43° WSW 04:36:44 10° S
Cosmos 489 Rocket 4.5 04:31:50 10° NNW 04:37:58 62° WSW 04:44:08 10° S
Cosmos 1536 Rocket 4.3 04:37:01 24° WSW 04:38:26 30° WNW 04:42:17 10° N
SL-16 R/B 3.7 04:33:58 10° S 04:39:10 40° ESE 04:44:26 10° NE
Cosmos 1726 3.6 04:38:59 10° N 04:42:28 40° ENE 04:45:56 10° SSE
Cosmos 1943 Rocket 4.4 04:39:58 10° N 04:44:27 23° NE 04:48:55 10° E
Aureole 1 Rocket 4.4 04:42:41 16° WSW 04:46:55 32° WNW 04:51:27 10° N
SKYMED 2 3.7 04:43:11 10° SSE 04:47:31 80° ENE 04:51:53 10° N
CZ-4B R/B 2.9 04:43:42 10° N 04:47:43 54° WNW 04:51:31 10° SSW
Cosmos 1190 Rocket 4.0 04:42:31 10° SSW 04:47:49 75° WNW 04:53:08 10° NNE
Cosmos 2297 4.3 04:42:36 10° NNW 04:48:19 61° ENE 04:53:59 10° SE
Cosmos 2278 Rocket 2.5 04:44:33 10° NW 04:49:57 46° WSW 04:55:19 10° S
Cosmos 407 Rocket 3.4 04:45:40 10° SSW 04:50:46 62° WNW 04:55:53 10° NNE
Cosmos 2333 Rocket 3.0 04:48:34 17° WSW 04:52:03 31° NW 04:57:05 10° N
Meteor 1-4 Rocket 2.4 04:52:58 10° SSW 04:56:28 67° WNW 04:59:57 10° N
USA 267 4.1 04:50:45 10° NE 04:56:36 37° NNW 05:02:02 12° WNW
Cosmos 1892 Rocket 3.7 04:52:38 10° S 04:57:04 80° E 05:01:31 10° N
GP-B 3.1 04:52:59 10° S 04:57:25 86° W 05:01:53 10° N
ERBS 2.6 04:55:24 18° WSW 04:57:38 49° NW 05:00:57 10° NE
Cosmos 1437 Rocket 3.3 05:00:18 10° S 05:04:02 60° E 05:07:47 10° NNE
PSLV R/B 3.7 05:00:56 10° N 05:04:36 57° WNW 05:08:13 10° SSW
Cosmos 1953 2.8 05:03:18 10° NNW 05:07:03 37° W 05:10:46 10° SSW
CZ-2C R/B 3.1 05:03:16 10° N 05:07:58 35° WNW 05:12:38 10° SW
COBE Rocket 4.0 05:04:05 10° S 05:09:02 62° W 05:14:08 10° NNW
Helios 1A Rocket 3.1 05:05:51 10° NNE 05:10:02 79° ESE 05:14:10 10° S
Cosmos 1606 Rocket 3.8 05:06:19 10° NNW 05:10:26 44° W 05:14:31 10° SSW
Cosmos 2154 Rocket 4.1 05:09:30 10° SSW 05:15:33 55° WNW 05:21:39 10° N
KORONAS-FOTON 4.4 05:15:20 10° S 05:19:03 62° E 05:22:48 10° NNE
ALOS 2.4 05:15:27 10° NNE 05:20:09 85° ESE 05:24:49 10° SSW
MOS 1-B 4.4 05:14:32 10° N 05:20:18 65° WNW 05:26:02 10° SSW
Okean 1-7 Rocket 3.6 05:16:14 10° SSW 05:20:36 58° WNW 05:25:03 10° N
Cosmos 389 Rocket 3.7 05:21:00 10° WSW 05:23:40 21° WNW 05:26:21 10° NNW
Cosmos 2219 Rocket 3.6 05:21:10 10° W 05:25:08 19° NW 05:29:06 10° N
Cosmos 1954 Rocket 4.0 05:21:32 10° SSW 05:26:43 61° WNW 05:31:54 10° NNE
CZ-4B DEB 4.2 05:23:28 10° N 05:28:53 63° WNW 05:34:15 10° SSW
SJ-12 4.1 05:27:04 10° N 05:31:02 50° WNW 05:34:59 10° SSW
PAYLOAD B 4.3 05:25:54 10° N 05:31:26 67° WNW 05:36:55 10° SSW
Cosmos 2237 Rocket 2.8 05:26:24 10° WSW 05:31:36 36° NW 05:36:52 10° NNE
